Regional Weather Roundup
Issued by NWS Burlington, VT

Home | Current Version | Previous Version | Text Only | Print | Product List | Glossary On
Versions: 1 2 3 4 5 6 7 8 9 10 11 12 13 14 15 16 17 18 19 20 21 22 23 24 25 26 27 28 29 30 31 32 33 34 35 36 37 38 39 40 41 42 43 44 45 46 47 48 49 50
000
ASUS41 KBTV 301230
RWRBTV
VERMONT REGIONAL WEATHER ROUNDUP
NATIONAL WEATHER SERVICE BURLINGTON VT
800 AM EDT SAT JUL 30 2016

NOTE: "FAIR" INDICATES FEW OR NO CLOUDS BELOW 12,000 FEET WITH NO
SIGNIFICANT WEATHER AND/OR OBSTRUCTIONS TO VISIBILITY.

* THESE REPORTS ARE NOT UNDER NWS QUALITY CONTROL AND/OR DO NOT
  REPORT WEATHER SUCH AS PRECIPITATION AND FOG.

VTZ001>019-301300-
_____VERMONT_____


CITY           SKY/WX    TMP DP  RH WIND       PRES   REMARKS
BURLINGTON     FAIR      63  56  78 CALM      30.07R
6HR MIN TEMP:  59; 6HR MAX TEMP:  63;

MONTPELIER     FOG       56  56 100 CALM      30.12R VSB<1/4
6HR MIN TEMP:  51; 6HR MAX TEMP:  56;

MORRISVILLE    FAIR      58  55  90 N6        30.10S
6HR MIN TEMP:  50; 6HR MAX TEMP:  56;

ST. JOHNSBURY*   N/A     59  53  80 MISG      30.07R
6HR MIN TEMP:  54; 6HR MAX TEMP:  59;

LYNDONVILLE*   FAIR      61  56  82 CALM      30.11R
6HR MIN TEMP:  51; 6HR MAX TEMP:  60;

MIDDLEBURY*    FAIR      63  62  97 CALM      30.08R
6HR MIN TEMP:  54; 6HR MAX TEMP:  61;

RUTLAND*       FAIR      61  56  83 CALM      30.08R
6HR MIN TEMP:  56; 6HR MAX TEMP:  61;

SPRINGFIELD    FAIR      62  56  80 CALM      30.07R
6HR MIN TEMP:  56; 6HR MAX TEMP:  62;

HIGHGATE*      FAIR      65  58  77 N5        30.08R
6HR MIN TEMP:  53; 6HR MAX TEMP:  64;

NEWPORT*       FAIR      60  55  84 CALM      30.11R
6HR MIN TEMP:  49; 6HR MAX TEMP:  59;

BENNINGTON     FAIR      65  59  81 CALM      30.06R
6HR MIN TEMP:  54; 6HR MAX TEMP:  65;

SUTTON*          N/A     63 N/A N/A MISG        N/A
GALLUP MILLS*    N/A     57 N/A N/A MISG        N/A
UNION VILLAGE*   N/A     61 N/A N/A MISG        N/A
MT. MANSFIELD*   N/A     55 N/A N/A N10         N/A

_____LAKE CHAMPLAIN_____


CITY           SKY/WX    TMP DP  RH WIND       PRES   REMARKS
BURTON ISLAND*   N/A     70  59  68 W1          N/A
COLCHESTER RF*   N/A     66  61  82 N13         N/A
DIAMOND ISL*     N/A     68  59  73 N10         N/A

$$

NYZ007-026>031-035-052-083-087-301300-
_____NORTHERN NEW YORK_____


CITY           SKY/WX    TMP DP  RH WIND       PRES   REMARKS
PLATTSBURGH    SUNNY     67  57  70 N6        30.07R
6HR MIN TEMP:  57; 6HR MAX TEMP:  67;

SARANAC LAKE   MOSUNNY   58  54  86 CALM      30.09R
6HR MIN TEMP:  43; 6HR MAX TEMP:  58;

MASSENA        CLOUDY    63  57  81 CALM      30.09R
6HR MIN TEMP:  54; 6HR MAX TEMP:  64;

OGDENSBURG*    SUNNY     64  57  77 NE3       30.08S
POTSDAM*       SUNNY     59  59 100 CALM      30.09R
STARK FALLS*     N/A     72 N/A N/A SE6         N/A
WATERTOWN      CLOUDY    62  55  77 NE9       30.06R
6HR MIN TEMP:  54; 6HR MAX TEMP:  62;

FT DRUM        CLOUDY    60  56  87 E5        30.08R
6HR MIN TEMP:  56; 6HR MAX TEMP:  61;

ALBANY         CLOUDY    67  60  78 N7        30.05R
6HR MIN TEMP:  64; 6HR MAX TEMP:  68;

GLENS FALLS    CLOUDY    67  60  78 NE5       30.05R
6HR MIN TEMP:  59; 6HR MAX TEMP:  67;


$$
NHZ002-005-011-301300-
_____NEW HAMPSHIRE_____


CITY           SKY/WX    TMP DP  RH WIND       PRES   REMARKS
LEBANON        MOSUNNY   64  57  78 CALM      30.06R
6HR MIN TEMP:  54; 6HR MAX TEMP:  64;

KEENE          PTSUNNY   66  61  82 CALM      30.06R
6HR MIN TEMP:  60; 6HR MAX TEMP:  66;

MT WASHINGTON  MOSUNNY   45  39  81 NW22        N/A
6HR MIN TEMP:  42; 6HR MAX TEMP:  49;

PLYMOUTH       FAIR      67  57  70 NW7       30.04S
6HR MIN TEMP:  57; 6HR MAX TEMP:  66;

WHITEFIELD     CLOUDY    59  54  83 CALM      30.08R
6HR MIN TEMP:  49; 6HR MAX TEMP:  59;


$$

_____REGIONAL QUEBEC LOCATIONS_____


CITY           SKY/WX    TMP DP  RH WIND       PRES   REMARKS
MONTREAL       MOSUNNY   68  54  60 VRB8      30.09R
QUEBEC CITY    MOSUNNY   64  54  68 NW8       30.04R
SHERBROOKE     SUNNY     57  54  88 SW3       30.08R

_____REGIONAL ONTARIO LOCATIONS_____


CITY           SKY/WX    TMP DP  RH WIND       PRES   REMARKS
OTTAWA         MOSUNNY   66  55  68 N8        30.10R

______KEY______
VSB  - VISIBILITY IN MILES
WCI  - WIND CHILL INDEX
HX   - HEAT INDEX
$$
NNNN



USA.gov is the U.S. government's official web portal to all federal, state and local government web resources and services.